CYBX

Lourdes de Blanc Sablon Airport

Lourdes-De-Blanc-Sablon, Quebec, Canada
Issued Wind Visibility Ceiling Temperature Dew Point Humidity Barometer
Sep-20
00:00 UTC
240°
13 KTS
1/13 miles Vertical visibility
0' AGL
14° C
57° F
14° C
57° F
100% 30.1" Hg
1019.7 hPa
LIFR
Sep-19
23:00 UTC
240°
13 KTS
1/13 miles Vertical visibility
0' AGL
12° C
54° F
12° C
54° F
100% 30.12" Hg
1020.2 hPa
LIFR
Sep-19
22:00 UTC
230°
5 KTS
1/13 miles Vertical visibility
100' AGL
11° C
52° F
11° C
52° F
100% 30.12" Hg
1020.3 hPa
LIFR
Sep-19
21:00 UTC
140°
5 KTS
1/2 miles Vertical visibility
100' AGL
11° C
52° F
11° C
52° F
100% 30.12" Hg
1020.4 hPa
LIFR
Sep-19
20:00 UTC
110°
5 KTS
1 miles Overcast
200' AGL
11° C
52° F
11° C
52° F
100% 30.13" Hg
1020.7 hPa
LIFR
Sep-19
19:31 UTC
120°
5 KTS
1 miles Overcast
200' AGL
11° C
52° F
11° C
52° F
100% 30.14" Hg
1021 hPa
LIFR
Sep-19
19:00 UTC
120°
4 KTS
1 1/4 miles Overcast
300' AGL
11° C
52° F
11° C
52° F
100% 30.15" Hg
1021.4 hPa
LIFR
Sep-19
18:00 UTC
120°
4 KTS
1 1/2 miles Overcast
400' AGL
10° C
50° F
10° C
50° F
100% 30.17" Hg
1022.1 hPa
LIFR
Sep-19
17:34 UTC
120°
4 KTS
3 miles Broken
400' AGL
10° C
50° F
10° C
50° F
100% 30.19" Hg
1022.5 hPa
LIFR
Sep-19
17:00 UTC
120°
6 KTS
10 miles Overcast
2,000' AGL
10° C
50° F
C
48° F
94% 30.2" Hg
1023 hPa
MVFR
Sep-19
16:54 UTC
120°
7 KTS
15 miles Overcast
2,000' AGL
10° C
50° F
C
48° F
94% 30.2" Hg
1023 hPa
MVFR
Sep-19
16:00 UTC
120°
6 KTS
3 miles Overcast
2,000' AGL
C
48° F
C
48° F
100% 30.23" Hg
1024.1 hPa
MVFR
Sep-19
15:00 UTC
140°
3 KTS
10 miles Overcast
5,000' AGL
10° C
50° F
C
48° F
94% 30.25" Hg
1024.8 hPa
VFR
Sep-19
14:00 UTC
090°
5 KTS
10 miles Overcast
5,000' AGL
10° C
50° F
C
46° F
88% 30.27" Hg
1025.3 hPa
VFR
Sep-19
13:00 UTC
8 miles Overcast
3,000' AGL
10° C
50° F
C
46° F
88% 30.28" Hg
1025.6 hPa
MVFR
Sep-19
12:05 UTC
070°
4 KTS
15 miles Overcast
6,000' AGL
C
48° F
C
46° F
94% 30.28" Hg
1025.6 hPa
VFR
Sep-19
11:00 UTC
030°
4 KTS
15 miles Overcast
9,000' AGL
C
48° F
C
45° F
87% 30.29" Hg
1025.9 hPa
VFR
Sep-19
10:00 UTC
050°
4 KTS
15 miles Overcast
5,000' AGL
C
46° F
C
45° F
93% 30.29" Hg
1026.1 hPa
VFR
Sep-19
09:34 UTC
050°
4 KTS
15 miles Broken
2,500' AGL
C
46° F
C
43° F
87% 30.3" Hg
1026.2 hPa
MVFR
Sep-19
09:00 UTC
030°
4 KTS
15 miles Broken
3,000' AGL
C
46° F
C
43° F
87% 30.3" Hg
1026.2 hPa
MVFR
Sep-19
08:58 UTC
040°
4 KTS
15 miles Broken
3,000' AGL
C
46° F
C
43° F
87% 30.3" Hg
1026.2 hPa
MVFR
Sep-19
08:00 UTC
030°
4 KTS
15 miles Broken
15,000' AGL
C
45° F
C
41° F
87% 30.3" Hg
1026.5 hPa
VFR
Sep-19
07:00 UTC
030°
6 KTS
15 miles Broken
15,000' AGL
C
43° F
C
39° F
87% 30.3" Hg
1026.5 hPa
VFR
Sep-19
06:00 UTC
040°
6 KTS
15 miles   C
39° F
C
37° F
93% 30.32" Hg
1026.9 hPa
VFR
Sep-19
05:00 UTC
030°
4 KTS
15 miles   C
41° F
C
37° F
87% 30.33" Hg
1027.3 hPa
VFR
Sep-19
04:00 UTC
050°
5 KTS
15 miles   C
39° F
C
36° F
87% 30.34" Hg
1027.7 hPa
VFR
Sep-19
03:00 UTC
060°
5 KTS
15 miles   C
39° F
C
37° F
93% 30.35" Hg
1028.1 hPa
VFR
Sep-19
02:00 UTC
030°
3 KTS
15 miles   C
43° F
C
37° F
81% 30.36" Hg
1028.3 hPa
VFR
Sep-19
01:00 UTC
010°
4 KTS
15 miles   C
43° F
C
39° F
87% 30.36" Hg
1028.2 hPa
VFR